GW5888 Weather Reports


Display with metric or nautical units.
time (UTC)temp
F
wind
direction
speed
MPH
gust
MPH
rain 1hr
in
rain 24hr
in
rain mn
in
humidity
%
barometer
mb
20260502234519 71 34 3.0 7.0 0.00 0.00 0.00 30 1012.0
20260502233536 71 20 4.0 8.0 0.00 0.00 0.00 31 1012.1
20260502232516 71 19 5.0 8.0 0.00 0.00 0.00 30 1012.2
20260502231539 72 7 5.0 9.0 0.00 0.00 0.00 30 1012.4
20260502230519 71 2 6.0 9.0 0.00 0.00 0.00 29 1012.4
20260502225520 71 18 4.0 9.0 0.00 0.00 0.00 30 1012.5
20260502224517 71 19 5.0 10.0 0.00 0.00 0.00 29 1012.6
20260502223520 71 16 7.0 10.0 0.00 0.00 0.00 30 1012.7
20260502222520 71 19 7.0 10.0 0.00 0.00 0.00 29 1012.8
20260502221520 71 6 7.0 11.0 0.00 0.00 0.00 31 1012.9
20260502220517 71 8 8.0 12.0 0.00 0.00 0.00 29 1012.9
20260502215518 71 20 8.0 12.0 0.00 0.00 0.00 29 1013.0
20260502214518 70 15 6.0 10.0 0.00 0.00 0.00 29 1013.1
20260502213521 71 16 6.0 13.0 0.00 0.00 0.00 29 1013.2
20260502212538 71 7 9.0 14.0 0.00 0.00 0.00 29 1013.2
20260502211518 70 5 7.0 12.0 0.00 0.00 0.00 30 1013.3
20260502210519 70 3 7.0 15.0 0.00 0.00 0.00 30 1013.4
20260502205518 70 9 7.0 11.0 0.00 0.00 0.00 32 1013.5
20260502204519 70 10 6.0 12.0 0.00 0.00 0.00 33 1013.6
20260502203539 70 8 5.0 10.0 0.00 0.00 0.00 33 1013.7
20260502202539 70 11 5.0 10.0 0.00 0.00 0.00 34 1013.8
20260502201520 70 11 5.0 11.0 0.00 0.00 0.00 33 1013.9
20260502200519 70 7 5.0 9.0 0.00 0.00 0.00 34 1013.8
20260502195516 70 9 5.0 9.0 0.00 0.00 0.00 34 1013.9
20260502194517 69 9 6.0 11.0 0.00 0.00 0.00 32 1014.0
20260502193517 69 358 7.0 12.0 0.00 0.00 0.00 31 1014.0
20260502192518 69 4 6.0 10.0 0.00 0.00 0.00 33 1014.2
20260502191520 68 359 5.0 9.0 0.00 0.00 0.00 38 1014.4
20260502190521 67 26 3.0 8.0 0.00 0.00 0.00 36 1014.6
20260502185518 67 17 3.0 6.0 0.00 0.00 0.00 41 1014.8
20260502184518 66 41 3.0 6.0 0.00 0.00 0.00 44 1014.9
20260502183518 65 1 2.0 6.0 0.00 0.00 0.00 42 1015.0
20260502182518 65 4 2.0 4.0 0.00 0.00 0.00 41 1015.1
20260502181518 63 84 2.0 5.0 0.00 0.00 0.00 41 1015.2
20260502180518 63 311 2.0 5.0 0.00 0.00 0.00 40 1015.3
20260502170520 59 185 4.0 8.0 0.00 0.00 0.00 46 1015.8
20260502163520 56 194 5.0 9.0 0.00 0.00 0.00 49 1016.2
20260502162520 55 195 4.0 7.0 0.00 0.00 0.00 50 1016.3
20260502161538 54 173 5.0 10.0 0.00 0.00 0.00 53 1016.4
20260502160518 53 158 6.0 9.0 0.00 0.00 0.00 54 1016.5
20260502151519 48 177 8.0 11.0 0.00 0.00 0.00 63 1017.0
20260502150518 48 166 6.0 10.0 0.00 0.00 0.00 64 1017.0
20260502130521 39 149 5.0 7.0 0.00 0.00 0.00 84 1017.1
20260502123519 38 143 4.0 6.0 0.00 0.00 0.00 86 1017.1
20260502122539 38 143 2.0 5.0 0.00 0.00 0.00 85 1017.1
20260502121519 38 136 3.0 6.0 0.00 0.00 0.00 83 1017.1
20260502120519 38 234 1.0 3.0 0.00 0.00 0.00 85 1017.1
20260502115519 39 184 2.0 4.0 0.00 0.00 0.00 84 1017.0
20260502114516 39 143 2.0 5.0 0.00 0.00 0.00 84 1016.9
20260502113516 39 142 1.0 4.0 0.00 0.00 0.00 83 1016.9
20260502112517 39 140 2.0 4.0 0.00 0.00 0.00 83 1016.9
20260502111520 40 159 2.0 5.0 0.00 0.00 0.00 82 1016.8
20260502110520 40 136 4.0 8.0 0.00 0.00 0.00 82 1016.8
20260502105517 40 179 3.0 5.0 0.00 0.00 0.00 81 1016.7
20260502104517 40 142 3.0 7.0 0.00 0.00 0.00 80 1016.6
20260502103520 41 199 3.0 5.0 0.00 0.00 0.00 79 1016.6
20260502102520 41 136 4.0 7.0 0.00 0.00 0.00 78 1016.5
20260502101518 40 296 2.0 4.0 0.00 0.00 0.00 79 1016.4
20260502100518 41 311 1.0 3.0 0.00 0.00 0.00 77 1016.4
20260502090519 42 101 1.0 4.0 0.00 0.00 0.00 75 1016.1
20260502071521 43 327 1.0 2.0 0.00 0.00 0.00 78 1015.9
20260502070518 43 233 1.0 4.0 0.00 0.00 0.00 77 1015.8
20260502065518 43 338 1.0 3.0 0.00 0.00 0.00 77 1015.8
20260502064518 42 20 1.0 3.0 0.00 0.00 0.00 80 1015.7
20260502063519 42 360 1.0 2.0 0.00 0.00 0.00 85 1015.6
20260502062518 42 262 1.0 3.0 0.00 0.00 0.00 85 1015.6
20260502061519 43 355 1.0 2.0 0.00 0.00 0.00 85 1015.5
20260502060519 43 227 2.0 4.0 0.00 0.00 0.00 85 1015.5
20260502055519 43 224 1.0 3.0 0.00 0.00 0.00 83 1015.5
20260502054519 43 124 1.0 2.0 0.00 0.00 0.00 81 1015.5
20260502053516 44 34 1.0 2.0 0.00 0.00 0.00 80 1015.4
20260502052520 44 273 1.0 5.0 0.00 0.00 0.00 79 1015.3
20260502051519 45 70 1.0 3.0 0.00 0.00 0.00 79 1015.3
20260502050520 45 330 1.0 3.0 0.00 0.00 0.00 80 1015.2
20260502045517 45 351 1.0 2.0 0.00 0.00 0.00 80 1015.1
20260502044538 46 12 1.0 3.0 0.00 0.00 0.00 75 1015.0
20260502043520 46 216 2.0 3.0 0.00 0.00 0.00 76 1015.0
20260502042520 47 123 1.0 3.0 0.00 0.00 0.00 76 1015.0
20260502041518 48 218 2.0 4.0 0.00 0.00 0.00 71 1014.9
20260502040518 48 135 1.0 3.0 0.00 0.00 0.00 72 1014.9
20260502035518 49 279 1.0 2.0 0.00 0.00 0.00 70 1014.8
20260502034518 50 276 1.0 3.0 0.00 0.00 0.00 68 1014.7
20260502033518 50 249 1.0 4.0 0.00 0.00 0.00 65 1014.6
20260502032515 51 229 1.0 3.0 0.00 0.00 0.00 64 1014.5
20260502031518 52 215 1.0 3.0 0.00 0.00 0.00 62 1014.3
20260502030519 53 265 2.0 4.0 0.00 0.00 0.00 62 1014.2
20260502025519 54 6 0.0 2.0 0.00 0.00 0.00 52 1013.9
20260502024519 55 228 1.0 3.0 0.00 0.00 0.00 59 1013.9
20260502023519 56 5 1.0 3.0 0.00 0.00 0.00 52 1013.8
20260502022540 58 251 2.0 3.0 0.00 0.00 0.00 54 1013.8
20260502021519 59 274 1.0 2.0 0.00 0.00 0.00 57 1013.7
20260502020520 62 43 1.0 2.0 0.00 0.00 0.00 45 1013.6
20260502015517 64 325 1.0 2.0 0.00 0.00 0.00 41 1013.6
20260502014519 64 329 1.0 2.0 0.00 0.00 0.00 39 1013.5
20260502013520 67 246 2.0 3.0 0.00 0.00 0.00 38 1013.5
20260502012521 68 190 0.0 2.0 0.00 0.00 0.00 33 1013.5
20260502011518 68 241 2.0 3.0 0.00 0.00 0.00 38 1013.6
20260502010518 69 194 2.0 4.0 0.00 0.00 0.00 34 1013.6
20260502005517 70 249 1.0 3.0 0.00 0.00 0.00 35 1013.6
20260502004521 71 264 2.0 3.0 0.00 0.00 0.00 31 1013.7
20260502003518 72 329 3.0 5.0 0.00 0.00 0.00 29 1013.7
20260502002518 71 251 2.0 5.0 0.00 0.00 0.00 27 1013.6
20260502001518 72 196 3.0 6.0 0.00 0.00 0.00 27 1013.6
20260502000518 72 175 1.0 3.0 0.00 0.00 0.00 26 1013.6
20260501235559 71 280 3.0 7.0 0.00 0.00 0.00 27 1013.7